This is the latest recevied weather packets stored in our database for station/object VE4GLS. If no packets are shown the sender has not sent any weather packets the latest 10 day(s).
| Time | Temp. | Humidity | Pressure | Rain* | Wind** | Luminosity | Snow |
|---|---|---|---|---|---|---|---|
| 1777647755 | 7.78° C | 52% | 1019.3 hPa | 0 mm | - | - | - |
| 1777647195 | 7.22° C | 53% | 1019.4 hPa | 0 mm | - | - | - |
| 1777646855 | 7.22° C | 52% | 1019.5 hPa | 0 mm | - | - | - |
| 1777646593 | 7.22° C | 53% | 1019.5 hPa | 0 mm | - | - | - |
| 1777645994 | 6.67° C | 55% | 1019.5 hPa | 0 mm | - | - | - |
| 1777645954 | 6.67° C | 55% | 1019.6 hPa | 0 mm | - | - | - |
| 1777645394 | 6.11° C | 58% | 1019.6 hPa | 0 mm | - | - | - |
| 1777645056 | 5.56° C | 58% | 1019.6 hPa | 0 mm | - | - | - |
| 1777644794 | 5.56° C | 59% | 1019.6 hPa | 0 mm | - | - | - |
| 1777644194 | 5° C | 62% | 1019.7 hPa | 0 mm | - | - | - |
| 1777644156 | 5° C | 61% | 1019.7 hPa | 0 mm | - | - | - |
| 1777643595 | 4.44° C | 63% | 1019.8 hPa | 0 mm | - | - | - |
| 1777643255 | 3.89° C | 67% | 1019.7 hPa | 0 mm | - | - | - |
| 1777642995 | 3.89° C | 67% | 1019.7 hPa | 0 mm | - | - | - |
| 1777642395 | 2.78° C | 69% | 1019.7 hPa | 0 mm | - | - | - |
| 1777642355 | 2.78° C | 70% | 1019.7 hPa | 0 mm | - | - | - |
| 1777641795 | 2.22° C | 73% | 1019.8 hPa | 0 mm | - | - | - |
| 1777641454 | 1.67° C | 75% | 1019.7 hPa | 0 mm | - | - | - |
| 1777641194 | 1.11° C | 76% | 1019.7 hPa | 0 mm | - | - | - |
| 1777640594 | 0° C | 80% | 1019.7 hPa | 0 mm | - | - | - |
| 1777640554 | 0° C | 80% | 1019.6 hPa | 0 mm | - | - | - |
| 1777639994 | -1.11° C | 84% | 1019.6 hPa | 0 mm | - | - | - |
| 1777639656 | -1.67° C | 85% | 1019.6 hPa | 0 mm | - | - | - |
| 1777639395 | -2.22° C | 86% | 1019.6 hPa | 0 mm | - | - | - |
| 1777638794 | -3.33° C | 88% | 1019.5 hPa | 0 mm | - | - | - |
* Rain latest hour (hover to see other rain measurements)
** Current wind speed in m/s (hover to see current wind gust speed)